• Join FlightAware (Why Join?)
  • Login
  • US Flag 
07:49PM EST


 

Airport Tracker/Info


-or-


 

Live Flight TrackerFlight Track Log ✈ ASQ5745 ✈ 17-May-2013 ✈ KIAD - KALB

Flight Track Log - Related Links

Times and Time Zones

All times are in EDT time to prevent confusion due to time zone crossing. See the ASQ5745 flight status page for this flight to view local times or setup timezone preferences in your user account.

Time Position Orientation Groundspeed Altitude Reporting Facility
EDT Latitude Longitude Course Direction KTS MPH feet Rate Location/Type
08:26AM 39.0000 -77.4500 North 224 258 2,500  Level Potomac TRACON
08:28AM 39.3010 -77.4500 North  Level FlightAware Approximate
08:28AM 39.1550 -77.4786 352° North 253 291 8,800  Level Washington Center
08:29AM 39.3929 -77.4500 North  Level FlightAware Approximate
08:29AM 39.2342 -77.4753 North 263 303 10,700  Level Washington Center
08:30AM 39.4848 -77.4500 North  Level FlightAware Approximate
08:30AM 39.3239 -77.4697 North 293 337 12,300  Level Washington Center
08:31AM 39.5678 -77.4500 North  Level FlightAware Approximate
08:31AM 39.4200 -77.4639 North 320 368 14,200  Level Washington Center
08:33AM 39.6553 -77.4533 North 352 405 17,700 1,260 Climbing New York Center
08:34AM 39.7469 -77.4539 360° North 359 413 18,600 960 Climbing New York Center
08:35AM 39.8617 -77.4514 North 371 427 19,700 1,080 Climbing New York Center
08:36AM 39.9681 -77.4506 360° North 371 427 20,800 1,080 Climbing New York Center
08:37AM 40.0767 -77.4503 360° North 376 433 21,900 1,020 Climbing New York Center
08:38AM 40.1728 -77.4431 North 386 444 22,900 840 Climbing New York Center
08:39AM 40.2833 -77.4428 360° North 386 444 23,600 660 Climbing New York Center
08:40AM 40.3931 -77.3853 22° Northeast 391 450 24,300 660 Climbing New York Center
08:41AM 40.4950 -77.3131 28° Northeast 404 465 25,000 300 Climbing New York Center
08:42AM 40.5989 -77.2411 28° Northeast 411 473 25,000  Level New York Center
08:43AM 40.7072 -77.1664 28° Northeast 426 490 25,000  Level New York Center
08:44AM 40.8153 -77.0942 27° Northeast 431 496 25,000  Level New York Center
08:45AM 40.9236 -77.0164 28° Northeast 431 496 25,000  Level New York Center
08:46AM 41.0297 -76.9436 27° Northeast 431 496 25,000  Level New York Center
08:47AM 41.1356 -76.8678 28° Northeast 431 496 25,000  Level New York Center
08:48AM 41.2436 -76.7919 28° Northeast 431 496 25,000  Level New York Center
08:49AM 41.3517 -76.7186 27° Northeast 431 496 25,000  Level New York Center
08:50AM 41.4594 -76.6422 28° Northeast 436 502 25,000  Level New York Center
08:51AM 41.5653 -76.5683 28° Northeast 436 502 25,000 -300 Level New York Center
08:54AM 41.8103 -76.3928 28° Northeast 450 518 24,200 -360 Descending Boston Center
08:55AM 41.9194 -76.3131 29° Northeast 450 518 24,000 -120 Descending Boston Center
08:56AM 42.0261 -76.2358 28° Northeast 445 512 24,000  Level Boston Center
08:57AM 42.1289 -76.1581 29° Northeast 440 506 24,000  Level Boston Center
08:58AM 42.1978 -76.0247 55° Northeast 425 489 24,000  Level Boston Center
08:59AM 42.2506 -75.8706 65° Northeast 427 491 24,000  Level Boston Center
09:00AM 42.2994 -75.6992 69° East 427 491 24,000  Level Boston Center
09:01AM 42.3394 -75.5383 71° East 437 503 24,000  Level Boston Center
09:02AM 42.3792 -75.3717 72° East 448 516 24,000 -900 Level Boston Center
09:03AM 42.4189 -75.2075 72° East 454 522 22,200 -2,160 Descending Boston Center
09:04AM 42.4603 -75.0406 71° East 459 528 19,700 -2,400 Descending Boston Center
09:05AM 42.4992 -74.8789 72° East 459 528 17,400 -2,400 Descending Boston Center
09:05AM 42.5267 -74.7644 72° East 431 496 15,600 -2,640 Descending Boston Center
09:06AM 42.5339 -74.7225 77° East 440 506 14,800 -2,340 Descending Boston Center
09:07AM 42.5675 -74.5939 70° East 406 467 12,800 -2,040 Descending Boston Center
09:08AM 42.5911 -74.4397 78° East 389 448 10,900 -1,380 Descending Boston Center
09:09AM 42.5831 -74.3069 95° East 327 376 10,000 -1,380 Descending Boston Center
09:10AM 42.5744 -74.1881 96° East 316 364 8,100 -1,800 Descending Boston Center
09:11AM 42.5678 -74.0781 95° East 295 339 6,400 -1,500 Descending Boston Center
09:12AM 42.5858 -73.9856 75° East 260 299 5,100 -1,320 Descending Boston Center